Simultaneous Nadir Overpasses (SNOs) Predictions

Prediction of SNOs over PacNW region [( 10.00, 139.50) to ( 22.70, 165.60)] between NOAA-19 and NPP Satellites:

Table of predicted SNOs over PacNW region for the next 30.0 days since TLE Epoch: 7/9/2014
Index Date (NOAA-19) Time (NOAA-19) NOAA-19 Lat,Lon Date (NPP) Time (NPP) NPP Lat,Lon Distance(km) Time Diff (sec)
1 07/11/2014 16:07:18 22.63, 150.06 07/11/2014 16:08:47 23.91, 144.70 566.34 89
2 07/12/2014 03:23:45 22.64, 153.47 07/12/2014 03:21:34 21.74, 149.08 463.04 131
3 07/24/2014 15:24:02 22.64, 161.03 07/24/2014 15:24:46 23.88, 155.78 553.37 44
4 07/25/2014 04:21:50 20.33, 139.51 07/25/2014 04:18:54 21.26, 134.92 489.21 176
5 08/06/2014 16:23:14 20.97, 146.07 08/06/2014 16:22:45 21.97, 141.03 533.77 29
6 08/07/2014 03:39:06 22.65, 149.92 08/07/2014 03:35:30 23.60, 145.43 471.21 216
